Weather Roundup
Issued by NWS Corpus Christi, TX

Home | Current Version | Previous Version | Text Only | Print | Product List | Glossary On
Versions: 1 2 3 4 5 6 7 8 9 10 11 12 13 14 15 16 17 18 19 20 21 22 23 24 25 26 27 28 29 30 31 32 33 34 35 36 37 38 39 40 41 42 43 44 45 46 47 48 49 50
000
ASUS44 KCRP 260910
HRRCRP

SOUTH TEXAS REGIONAL WEATHER ROUNDUP
NATIONAL WEATHER SERVICE CORPUS CHRISTI TX
400 AM CDT WED JUL 26 2017


TXZ229>244-261000-
...CORPUS CHRISTI AREA OBSERVATIONS...

CITY           SKY/WX    TMP DP  RH WIND       PRES   REMARKS
CORPUS CHRISTI CLOUDY    75  74  96 S5        30.03R
NAS CORPUS CHR CLEAR     81  77  88 S6        30.03R
ROCKPORT       MOCLDY    80  74  81 S7        30.03S
KINGSVILLE NAS CLOUDY    77  74  90 S5        30.03R
ALICE          PTCLDY    76  71  85 S5        30.03R
FALFURRIAS     CLOUDY    75  71  87 CALM      30.01F
$$

...VICTORIA AREA OBSERVATIONS...

CITY           SKY/WX    TMP DP  RH WIND       PRES   REMARKS
VICTORIA       CLOUDY    78  76  93 S5        30.05R
BEEVILLE       FAIR      78  78 100 S5        30.04R
PLEASANTON     CLEAR     78  74  87 SE5       30.04F
SAN ANTONIO    PTCLDY    78  73  84 SE6       30.06F
$$

...LAREDO AREA OBSERVATIONS...

CITY           SKY/WX    TMP DP  RH WIND       PRES   REMARKS
LAREDO         CLEAR     80  67  64 SE13      30.02F
COTULLA        CLEAR     78  68  71 SE6       30.02F
DEL RIO        CLEAR     80  70  71 SE6       30.02F
MCALLEN        CLEAR     80  72  76 S9        30.03R
HEBBRONVILLE   CLEAR     73  67  81 S5        30.04F
$$

...OTHER TEXAS OBSERVATIONS...

CITY           SKY/WX    TMP DP  RH WIND       PRES   REMARKS
BROWNSVILLE    CLEAR     77  75  93 SE7       30.04R
HOUSTON        MOCLDY    78  74  87 SE5       30.06R
COL. STATION   CLEAR     78  75  90 E5        30.06S
AUSTIN         MOCLDY    78  74  87 CALM      30.05F
WACO           CLEAR     80  73  79 S12       30.05S
FORT WORTH     CLEAR     83  72  69 S10       30.03S
WICHITA FALLS  CLEAR     80  67  64 S10       30.00F
LUBBOCK        PTCLDY    80  60  50 S15       30.10S
EL PASO        PTCLDY    83  64  52 W13       30.11S
$$

...MARINE OBSERVATIONS...

STATION/POSITION TIME  SKY/WX   TEMP    WIND        PRES    VSBY  WAVE   SWELL
                                AIR SEA DIR/SP/G                  HT/PER HT/PER
                 (UTC)          (F)     (DEG/KT/KT) (MB)    (MI)  (FT/S) (FT/S)
PORT ARANSAS     0900            83 85  140/ 14/ 15 1017.4R
BUOY 90 E PORT A 0750            82 86  160/ 10/ 12 1017.6          3/ 6   2/ 6
BUOY 45 SE BAFFI 0750            83     160/ 12/ 16 1015.7          4/ 6   2/13
BUOY 200 E PT IS 0750            82 87   90/  8/ 10 1018.0          3/ 6   3/ 6
BUOY 15 E GALVES 0750            84 85  210/  6/  8 1018.1          3/ 6   3/ 6
$$




USA.gov is the U.S. government's official web portal to all federal, state and local government web resources and services.